カタログに戻る

STARLINK-34630

運用中通信SSO
NORAD 64948·PAYLOAD·🇺🇸 United States

打ち上げ Jul 26, 2025 から Vandenberg Space Force Base

Loading…

次のパス (今後24時間)

TLE

最新Source: CelesTrak SupGP

元期: Sep 14, 2026, 21:01 UTC

1 64948C 25158S   26257.87618056  .00016741  00000+0  51998-3 0  2575
2 64948  97.2847 116.1789 0000229  78.1122 102.7556 15.33412887    16

AllMySatでSTARLINK-34630をリアルタイム追跡

Download on the App Store